Location: Prairie State College
(41.5244°N, 87.6382°W)
Time: 13:31:43
(UTC-05:00)

Amateur Radio Satellites - All Passes

Search period start: 27 July 2017 13:01
Search period end: 28 July 2017 13:01
Location: Prairie State College, 41.5244°N, 87.6382°W

Satellite Date Start Highest point End Downlink Frequencies (MHz)
Time Altitude Azimuth
PCSat 27 Jul 13:02:16 13:07:09 32° 51° (NE) 13:11:59 145.827
Gurwin Techsat 1B 27 Jul 13:05:18 13:10:02 34° 67° (ENE) 13:14:48 435.225
NANOSAT C BR1 27 Jul 13:06:45 13:09:29 17° 267° (W) 13:12:15 145.865
50 SAT 27 Jul 13:07:30 13:09:52 17° 94° (E) 13:12:13 437.505
EO-79 27 Jul 13:08:54 13:11:16 15° 268° (W) 13:13:39 145.935-145.965
DX 1 27 Jul 13:14:27 13:17:26 18° 93° (E) 13:20:22 434.975-435.025
VELOX 1 27 Jul 13:16:27 13:20:54 63° 102° (ESE) 13:25:18 145.980
SO-50 27 Jul 13:17:50 13:20:45 16° 40° (NE) 13:23:39 436.795
AO-7 27 Jul 13:30:21 13:36:06 21° 50° (NE) 13:41:50 .
BEESAT 2 27 Jul 13:37:34 13:41:24 45° 307° (NW) 13:45:19 435.950
AO-85 27 Jul 13:40:31 13:43:19 18° 316° (NW) 13:46:06 145.980
SPROUT 27 Jul 13:47:29 13:51:35 47° 288° (WNW) 13:55:39 437.525
UKube-1 27 Jul 13:50:56 13:54:43 28° 97° (E) 13:58:27 .
Oscar 19 27 Jul 13:57:18 14:02:16 52° 260° (W) 14:07:18 437.125/150
RS-15 27 Jul 14:07:50 14:17:18 28° 101° (ESE) 14:26:53 29.354- 29.394
ITAMSAT 1 27 Jul 14:16:56 14:20:38 20° 62° (ENE) 14:24:20 435.822/435.867
50 SAT 27 Jul 14:39:42 14:42:34 25° 290° (WNW) 14:45:26 437.505
Gurwin Techsat 1B 27 Jul 14:45:17 14:49:57 31° 264° (W) 14:54:39 435.225
PCSat 27 Jul 14:45:35 14:50:35 38° 249° (WSW) 14:55:32 145.827
DX 1 27 Jul 14:49:38 14:53:47 42° 289° (WNW) 14:57:54 434.975-435.025
O/OREOS (USA 219) 27 Jul 14:50:23 14:54:46 59° 109° (ESE) 14:59:11 437.305
BEESAT 27 Jul 14:50:26 14:52:44 13° 91° (E) 14:55:02 436.000
VELOX 1 27 Jul 14:54:34 14:56:49 14° 298° (WNW) 14:59:02 145.980
SO-50 27 Jul 14:57:11 15:01:43 77° 240° (WSW) 15:06:18 436.795
ITUPSAT 1 27 Jul 15:04:39 15:07:59 19° 93° (E) 15:11:18 437.325
AO-7 27 Jul 15:19:19 15:27:41 85° 70° (ENE) 15:36:07 .
MOZHAYETS 4 27 Jul 15:26:08 15:29:50 24° 94° (E) 15:33:31
UKube-1 27 Jul 15:27:02 15:30:37 26° 293° (WNW) 15:34:12 .
NO-84 27 Jul 15:43:08 15:45:38 17° 24° (NNE) 15:48:14 435.350 FM
ITAMSAT 1 27 Jul 15:54:32 15:59:40 55° 259° (W) 16:04:49 435.822/435.867
CUBESAT XI-V 27 Jul 16:09:05 16:11:26 14° 90° (E) 16:13:45 437.345
RS-15 27 Jul 16:16:07 16:28:23 84° 303° (WNW) 16:40:50 29.354- 29.394
BEESAT 27 Jul 16:26:12 16:30:55 64° 287° (WNW) 16:35:36 436.000
O/OREOS (USA 219) 27 Jul 16:31:54 16:34:35 15° 307° (NW) 16:37:17 437.305
ITUPSAT 1 27 Jul 16:41:29 16:46:02 46° 289° (WNW) 16:50:33 437.325
DOVE 4 27 Jul 17:01:12 17:05:53 43° 70° (ENE) 17:10:48 437.250
MOZHAYETS 4 27 Jul 17:02:56 17:07:00 33° 291° (WNW) 17:11:05
XW-2D 27 Jul 17:13:01 17:15:33 17° 67° (ENE) 17:18:04 145.860 - 145.880
AO-7 27 Jul 17:15:37 17:21:21 20° 269° (W) 17:27:08 .
NO-84 27 Jul 17:19:47 17:23:35 76° 42° (NE) 17:27:40 435.350 FM
XW-2B 27 Jul 17:22:45 17:25:38 21° 69° (ENE) 17:28:32 145.730 - 145.750
KKS-1 27 Jul 17:23:21 17:27:36 41° 99° (E) 17:31:48 437.445
YUBILEINY 27 Jul 17:23:46 17:30:10 23° 80° (E) 17:36:33 435.215
HO-68 27 Jul 17:26:15 17:30:26 17° 53° (NE) 17:34:38 435.675
NUDT-PHONESAT 27 Jul 17:36:29 17:39:25 23° 70° (ENE) 17:42:22 437.300
XW-2C 27 Jul 17:39:38 17:43:03 34° 72° (ENE) 17:46:28 145.795 - 145.815
CUBESAT XI-V 27 Jul 17:44:33 17:49:11 62° 286° (WNW) 17:53:48 437.345
STARS 27 Jul 17:45:22 17:49:13 29° 96° (E) 17:53:01 437.465
KAITUO 1B 27 Jul 17:54:32 17:57:58 39° 73° (ENE) 18:01:26 145.475/437.950
CUTE-I 27 Jul 18:01:53 18:07:10 62° 72° (ENE) 18:12:29 437.470
LilacSat-2 27 Jul 18:05:58 18:09:43 81° 79° (E) 18:13:30 437.200
XW-2F 27 Jul 18:14:47 18:18:31 87° 255° (WSW) 18:22:15 145.980 - 146.000
RS-15 27 Jul 18:32:12 18:42:58 33° 330° (NNW) 18:53:45 29.354- 29.394
DOVE 4 27 Jul 18:39:54 18:43:45 22° 268° (W) 18:47:45 437.250
Tancredo 1 27 Jul 18:45:08 18:47:41 27° 136° (SE) 18:50:14 437.200
XW-2D 27 Jul 18:46:08 18:49:30 31° 263° (W) 18:52:52 145.860 - 145.880
XW-2B 27 Jul 18:56:35 18:59:42 25° 265° (W) 19:02:50 145.730 - 145.750
NO-84 27 Jul 18:58:29 19:00:43 15° 235° (SW) 19:03:02 435.350 FM
KKS-1 27 Jul 19:00:37 19:03:51 20° 295° (WNW) 19:07:03 437.445
CUTE 1.7 + AOD 2 27 Jul 19:02:16 19:06:20 53° 74° (ENE) 19:10:26 437.475
ISS 27 Jul 19:04:17 19:06:22 16° 132° (SE) 19:08:27 437.550
SEEDS 27 Jul 19:09:03 19:12:55 39° 72° (ENE) 19:16:49 437.485
HO-68 27 Jul 19:09:54 19:17:05 81° 72° (ENE) 19:24:17 435.675
NUDT-PHONESAT 27 Jul 19:10:18 19:13:13 22° 265° (W) 19:16:09 437.300
CUBEBUG 2 27 Jul 19:11:46 19:16:04 38° 71° (ENE) 19:20:17 437.445
XW-2C 27 Jul 19:15:06 19:17:21 15° 267° (W) 19:19:37 145.795 - 145.815
AO-73 27 Jul 19:15:52 19:17:35 12° 63° (ENE) 19:19:17 145.935
YUBILEINY 27 Jul 19:17:09 19:25:58 76° 279° (W) 19:34:51 435.215
STARS 27 Jul 19:21:48 19:25:27 26° 293° (WNW) 19:29:04 437.465
KAITUO 1B 27 Jul 19:30:22 19:32:09 13° 268° (W) 19:33:56 145.475/437.950
BEESAT 3 27 Jul 19:31:59 19:33:59 13° 40° (NE) 19:35:57 437.485
XW-2A 27 Jul 19:41:31 19:44:53 81° 254° (WSW) 19:48:17 145.665 - 145.685
nSIGHT-1 27 Jul 19:42:35 19:45:37 39° 138° (SE) 19:48:40 .
AAUSAT CUBESAT 2 27 Jul 19:43:43 19:47:37 44° 73° (ENE) 19:51:33 437.432
CUTE-I 27 Jul 19:44:13 19:47:37 17° 269° (W) 19:51:02 437.470
UWE-3 27 Jul 20:03:19 20:07:52 79° 76° (ENE) 20:12:19 435.000/436.395/437.385
STRAND 1 27 Jul 20:05:27 20:10:28 55° 100° (E) 20:15:27 437.568
ZACube-1 27 Jul 20:10:37 20:14:54 51° 74° (ENE) 20:19:06 437.345
BEESAT 2 27 Jul 20:18:24 20:20:36 14° 40° (NE) 20:22:49 435.950
Tancredo 1 27 Jul 20:20:20 20:23:00 31° 333° (NNW) 20:25:42 437.200
DELFI C3 27 Jul 20:22:28 20:23:19 11° 63° (ENE) 20:24:09 145.870
AO-85 27 Jul 20:29:05 20:33:05 42° 52° (NE) 20:37:20 145.980
Oscar 11 27 Jul 20:31:24 20:35:37 58° 74° (ENE) 20:39:50 .
ISS 27 Jul 20:39:19 20:42:31 58° 327° (NNW) 20:45:45 437.550
CUTE 1.7 + AOD 2 27 Jul 20:40:39 20:42:29 13° 270° (W) 20:44:20 437.475
SEEDS 27 Jul 20:46:04 20:48:46 17° 268° (W) 20:51:29 437.485
AO-73 27 Jul 20:48:55 20:53:17 67° 259° (W) 20:57:35 145.935
CUBEBUG 2 27 Jul 20:49:10 20:52:45 22° 266° (W) 20:56:18 437.445
RS-15 27 Jul 20:51:31 21:00:48 23° 5° (N) 21:09:54 29.354- 29.394
FO-29 27 Jul 20:58:43 21:02:25 15° 85° (E) 21:05:55 435.910
HO-68 27 Jul 21:00:51 21:05:32 18° 270° (W) 21:10:15 435.675
BEESAT 3 27 Jul 21:08:04 21:12:06 79° 236° (SW) 21:16:01 437.485
nSIGHT-1 27 Jul 21:19:12 21:22:04 29° 335° (NNW) 21:24:58 .
YUBILEINY 27 Jul 21:19:32 21:24:27 16° 301° (WNW) 21:29:23 435.215
AAUSAT CUBESAT 2 27 Jul 21:20:57 21:23:18 15° 269° (W) 21:25:38 437.432
EO-88 27 Jul 21:36:10 21:39:38 44° 73° (ENE) 21:43:07 145.990 - 145.960
STRAND 1 27 Jul 21:45:40 21:49:13 19° 297° (WNW) 21:52:45 437.568
ZACube-1 27 Jul 21:49:01 21:51:26 14° 269° (W) 21:53:49 437.345
DELFI C3 27 Jul 21:53:37 21:57:30 64° 259° (W) 22:01:27 145.870
BEESAT 2 27 Jul 21:54:48 21:58:52 75° 240° (WSW) 22:02:52 435.950
Tancredo 1 27 Jul 21:57:41 21:59:04 13° 353° (N) 22:00:29 437.200
PRISM 27 Jul 22:07:00 22:10:04 20° 94° (E) 22:13:07 437.425
ESTCUBE 1 27 Jul 22:08:02 22:09:48 12° 61° (ENE) 22:11:34 437.505/2401.250
AO-85 27 Jul 22:10:02 22:13:15 21° 247° (WSW) 22:16:38 145.980
Oscar 11 27 Jul 22:10:22 22:12:06 12° 270° (W) 22:13:51 .
TIGRISAT 27 Jul 22:12:39 22:16:16 26° 95° (E) 22:19:50 435.000
ISS 27 Jul 22:17:16 22:19:32 17° 347° (NNW) 22:21:47 437.550
FO-29 27 Jul 22:41:29 22:48:32 85° 287° (WNW) 22:54:42 435.910
M-CUBED/EXP-1 PRIME 27 Jul 22:44:57 22:48:20 20° 98° (E) 22:51:41 437.505
nSIGHT-1 27 Jul 22:57:27 22:59:16 14° 356° (N) 23:01:04 .
LO-87 27 Jul 23:03:30 23:07:07 71° 75° (ENE) 23:10:44 145.935 - 145.965
UNISAT 6 27 Jul 23:05:23 23:09:41 72° 285° (WNW) 23:13:55 437.425
RS-15 27 Jul 23:06:26 23:17:53 42° 39° (NE) 23:28:45 29.354- 29.394
SPROUT 27 Jul 23:07:17 23:09:08 13° 62° (ENE) 23:11:00 437.525
EO-88 27 Jul 23:12:25 23:13:33 11° 269° (W) 23:14:40 145.990 - 145.960
O/OREOS (USA 219) 27 Jul 23:22:24 23:24:42 14° 52° (NE) 23:26:59 437.305
AIST 2D 27 Jul 23:29:31 23:32:18 22° 95° (E) 23:35:05 435.315
Tancredo 1 27 Jul 23:33:38 23:35:24 15° 13° (NNE) 23:37:09 437.200
ESTCUBE 1 27 Jul 23:41:32 23:45:59 72° 259° (W) 23:50:29 437.505/2401.250
PRISM 27 Jul 23:41:37 23:45:25 34° 290° (WNW) 23:49:11 437.425
TIGRISAT 27 Jul 23:49:17 23:52:53 26° 292° (WNW) 23:56:26 435.000
ISS 27 Jul 23:55:01 23:56:58 15° 7° (N) 23:58:55 437.550
DX 1 28 Jul 00:10:26 00:13:13 17° 64° (ENE) 00:16:00 434.975-435.025
VELOX 1 28 Jul 00:13:25 00:17:44 55° 73° (ENE) 00:22:06 145.980
M-CUBED/EXP-1 PRIME 28 Jul 00:18:26 00:22:52 46° 293° (WNW) 00:27:19 437.505
DUCHIFAT 1 28 Jul 00:19:52 00:23:35 30° 97° (E) 00:27:16 145.980
POLYITAN 1 28 Jul 00:26:57 00:31:01 46° 99° (E) 00:35:02 437.675
FO-29 28 Jul 00:28:19 00:32:21 16° 307° (NW) 00:36:09 435.910
nSIGHT-1 28 Jul 00:34:14 00:36:36 19° 16° (NNE) 00:38:59 .
BUGSAT 1 28 Jul 00:37:24 00:39:17 13° 91° (E) 00:41:08 437.445
QB50P2 28 Jul 00:40:07 00:44:21 75° 103° (ESE) 00:48:32 145.880/145.840
SPROUT 28 Jul 00:40:14 00:44:30 64° 259° (W) 00:48:47 437.525
UKube-1 28 Jul 00:45:33 00:49:05 25° 67° (ENE) 00:52:38 .
NANOSAT C BR1 28 Jul 00:48:54 00:53:07 77° 102° (ESE) 00:57:17 145.865
EO-79 28 Jul 00:51:00 00:55:13 90° 54° (NE) 00:59:25 145.935-145.965
O/OREOS (USA 219) 28 Jul 01:00:07 01:04:36 70° 250° (WSW) 01:09:05 437.305
AIST 2D 28 Jul 01:02:43 01:05:23 21° 291° (WNW) 01:08:02 435.315
Tancredo 1 28 Jul 01:08:25 01:11:18 52° 32° (NNE) 01:14:11 437.200
50 SAT 28 Jul 01:10:11 01:13:34 74° 257° (WSW) 01:17:00 437.505
RS-15 28 Jul 01:19:17 01:31:13 70° 244° (WSW) 01:42:30 29.354- 29.394
Gurwin Techsat 1B 28 Jul 01:23:02 01:25:14 12° 89° (E) 01:27:25 435.225
ISS 28 Jul 01:31:06 01:34:09 35° 27° (NNE) 01:37:11 437.550
DX 1 28 Jul 01:44:47 01:49:00 48° 260° (W) 01:53:15 434.975-435.025
VELOX 1 28 Jul 01:52:15 01:54:31 14° 269° (W) 01:56:47 145.980
DUCHIFAT 1 28 Jul 01:55:49 01:59:04 22° 293° (WNW) 02:02:18 145.980
BEESAT 28 Jul 01:56:45 01:59:50 17° 63° (ENE) 02:02:56 436.000
POLYITAN 1 28 Jul 02:03:54 02:06:24 16° 296° (WNW) 02:08:54 437.675
Oscar 19 28 Jul 02:08:25 02:13:30 53° 101° (E) 02:18:33 437.125/150
nSIGHT-1 28 Jul 02:10:11 02:13:25 77° 34° (NE) 02:16:38 .
BUGSAT 1 28 Jul 02:10:59 02:14:56 49° 287° (WNW) 02:18:49 437.445
ITUPSAT 1 28 Jul 02:11:25 02:15:11 23° 65° (ENE) 02:18:55 437.325
QB50P2 28 Jul 02:18:44 02:19:30 10° 299° (WNW) 02:20:17 145.880/145.840
UKube-1 28 Jul 02:21:13 02:24:59 29° 263° (W) 02:28:46 .
NANOSAT C BR1 28 Jul 02:27:49 02:28:11 10° 299° (WNW) 02:28:33 145.865
MOZHAYETS 4 28 Jul 02:28:12 02:31:51 24° 67° (ENE) 02:35:30
Tancredo 1 28 Jul 02:44:36 02:46:24 15° 228° (SW) 02:48:11 437.200
Gurwin Techsat 1B 28 Jul 03:00:26 03:05:47 80° 284° (WNW) 03:11:06 435.225
ISS 28 Jul 03:07:41 03:10:34 29° 224° (SW) 03:13:26 437.550
CUBESAT XI-V 28 Jul 03:12:54 03:15:20 14° 62° (ENE) 03:17:46 437.345
AO-7 28 Jul 03:21:40 03:28:32 27° 95° (E) 03:35:19 .
BEESAT 28 Jul 03:32:30 03:37:10 54° 259° (W) 03:41:52 436.000
YUBILEINY 28 Jul 03:35:28 03:36:48 10° 53° (NE) 03:38:07 435.215
RS-15 28 Jul 03:35:39 03:41:07 15° 266° (W) 03:46:31 29.354- 29.394
PCSat 28 Jul 03:44:35 03:49:02 27° 108° (ESE) 03:53:31 145.827
nSIGHT-1 28 Jul 03:48:08 03:49:23 12° 230° (SW) 03:50:38 .
ITUPSAT 1 28 Jul 03:48:18 03:52:45 38° 262° (W) 03:57:14 437.325
Oscar 19 28 Jul 03:48:43 03:52:24 20° 297° (WNW) 03:56:05 437.125/150
MOZHAYETS 4 28 Jul 04:04:41 04:08:50 34° 263° (W) 04:13:00
ITAMSAT 1 28 Jul 04:07:08 04:12:13 51° 100° (E) 04:17:14 435.822/435.867
KKS-1 28 Jul 04:21:15 04:25:24 39° 70° (ENE) 04:29:35 437.445
STARS 28 Jul 04:41:59 04:45:42 27° 68° (ENE) 04:49:28 437.465
Gurwin Techsat 1B 28 Jul 04:43:15 04:44:50 11° 303° (WNW) 04:46:25 435.225
CUBESAT XI-V 28 Jul 04:47:38 04:52:10 62° 259° (W) 04:56:45 437.345
DOVE 4 28 Jul 05:01:55 05:04:13 13° 87° (E) 05:06:29 437.250
SO-50 28 Jul 05:11:43 05:15:44 32° 115° (ESE) 05:19:45 436.795
AO-7 28 Jul 05:13:33 05:21:50 67° 293° (WNW) 05:30:02 .
PCSat 28 Jul 05:27:00 05:32:10 44° 306° (NW) 05:37:23 145.827
YUBILEINY 28 Jul 05:27:20 05:35:56 56° 77° (ENE) 05:44:25 435.215
STRAND 1 28 Jul 05:47:00 05:48:05 11° 57° (ENE) 05:49:10 437.568
ITAMSAT 1 28 Jul 05:47:28 05:51:18 21° 297° (WNW) 05:55:06 435.822/435.867
KKS-1 28 Jul 05:58:48 06:02:05 20° 266° (W) 06:05:24 437.445
STARS 28 Jul 06:18:09 06:21:58 28° 264° (W) 06:25:48 437.465
XW-2D 28 Jul 06:18:19 06:21:25 24° 95° (E) 06:24:29 145.860 - 145.880
CUTE-I 28 Jul 06:19:24 06:23:42 24° 94° (E) 06:27:58 437.470
XW-2B 28 Jul 06:28:18 06:31:38 30° 97° (E) 06:34:59 145.730 - 145.750
DOVE 4 28 Jul 06:37:15 06:42:30 76° 285° (WNW) 06:47:30 437.250
NUDT-PHONESAT 28 Jul 06:39:40 06:42:56 30° 97° (E) 06:46:13 437.300
HO-68 28 Jul 06:39:58 06:43:29 14° 88° (E) 06:46:58 435.675
XW-2C 28 Jul 06:45:35 06:49:16 50° 100° (E) 06:52:56 145.795 - 145.815
SO-50 28 Jul 06:52:09 06:56:10 30° 312° (NW) 07:00:11 436.795
KAITUO 1B 28 Jul 06:58:56 07:02:37 56° 100° (E) 07:06:17 145.475/437.950
AO-7 28 Jul 07:08:28 07:13:02 16° 314° (NW) 07:17:36 .
LilacSat-2 28 Jul 07:12:59 07:16:45 66° 285° (WNW) 07:20:32 437.200
FO-29 28 Jul 07:14:04 07:15:24 11° 48° (NE) 07:16:45 435.910
XW-2F 28 Jul 07:20:35 07:24:17 59° 285° (WNW) 07:28:00 145.980 - 146.000
STRAND 1 28 Jul 07:21:15 07:26:24 79° 74° (ENE) 07:31:33 437.568
YUBILEINY 28 Jul 07:24:51 07:32:14 32° 277° (W) 07:39:34 435.215
XW-2D 28 Jul 07:52:30 07:55:30 23° 291° (WNW) 07:58:30 145.860 - 145.880
UWE-3 28 Jul 07:54:17 07:56:32 14° 91° (E) 07:58:47 435.000/436.395/437.385
CUTE-I 28 Jul 07:58:51 08:03:54 43° 291° (WNW) 08:08:55 437.470
XW-2B 28 Jul 08:02:57 08:05:37 19° 292° (WNW) 08:08:17 145.730 - 145.750
NUDT-PHONESAT 28 Jul 08:14:07 08:16:36 17° 292° (WNW) 08:19:06 437.300
DOVE 4 28 Jul 08:18:23 08:19:10 10° 303° (WNW) 08:19:57 437.250
Oscar 11 28 Jul 08:21:07 08:21:56 10° 89° (E) 08:22:46 .
XW-2C 28 Jul 08:21:35 08:23:00 12° 295° (WNW) 08:24:25 145.795 - 145.815
CUTE 1.7 + AOD 2 28 Jul 08:22:19 08:26:34 76° 285° (WNW) 08:30:49 437.475
HO-68 28 Jul 08:24:58 08:32:10 84° 105° (ESE) 08:39:20 435.675
SEEDS 28 Jul 08:27:39 08:31:53 78° 102° (ESE) 08:36:08 437.485
UNISAT 6 28 Jul 08:30:58 08:32:08 11° 61° (ENE) 08:33:17 437.425
KAITUO 1B 28 Jul 08:35:18 08:36:08 11° 296° (WNW) 08:36:58 145.475/437.950
XW-2A 28 Jul 08:35:36 08:38:56 77° 283° (WNW) 08:42:15 145.665 - 145.685
AO-73 28 Jul 08:37:16 08:40:26 21° 94° (E) 08:43:35 145.935
CUBEBUG 2 28 Jul 08:38:37 08:42:51 82° 103° (ESE) 08:46:59 437.445
FO-29 28 Jul 08:51:15 08:58:36 49° 67° (ENE) 09:06:03 435.910
PRISM 28 Jul 08:57:03 08:59:25 15° 64° (ENE) 09:01:48 437.425
AAUSAT CUBESAT 2 28 Jul 09:00:29 09:04:41 84° 102° (ESE) 09:08:52 437.432
STRAND 1 28 Jul 09:04:11 09:06:09 12° 271° (W) 09:08:06 437.568
TIGRISAT 28 Jul 09:11:09 09:14:57 26° 68° (ENE) 09:18:42 435.000
UWE-3 28 Jul 09:29:16 09:33:15 45° 288° (WNW) 09:37:12 435.000/436.395/437.385
M-CUBED/EXP-1 PRIME 28 Jul 09:31:02 09:33:54 20° 60° (ENE) 09:36:55 437.505
DELFI C3 28 Jul 09:31:26 09:33:52 15° 92° (E) 09:36:18 145.870
ZACube-1 28 Jul 09:34:40 09:38:49 74° 283° (WNW) 09:42:55 437.345
Oscar 11 28 Jul 09:54:13 09:58:31 68° 285° (WNW) 10:02:48 .
UNISAT 6 28 Jul 10:03:32 10:08:10 84° 257° (WSW) 10:12:44 437.425
SEEDS 28 Jul 10:06:39 10:06:56 10° 298° (WNW) 10:07:12 437.485
AO-73 28 Jul 10:13:04 10:16:42 30° 290° (WNW) 10:20:19 145.935
NO-84 28 Jul 10:14:04 10:17:01 79° 139° (SE) 10:20:12 435.350 FM
HO-68 28 Jul 10:14:08 10:19:02 20° 305° (NW) 10:23:55 435.675
PRISM 28 Jul 10:30:20 10:34:17 47° 260° (W) 10:38:17 437.425
FO-29 28 Jul 10:36:36 10:43:38 38° 265° (W) 10:50:52 435.910
EO-88 28 Jul 10:37:59 10:41:35 58° 101° (E) 10:45:10 145.990 - 145.960
AO-85 28 Jul 10:47:10 10:47:58 10° 109° (ESE) 10:48:46 145.980
TIGRISAT 28 Jul 10:47:22 10:51:30 32° 263° (W) 10:55:34 435.000
BEESAT 3 28 Jul 10:59:00 11:01:26 16° 110° (ESE) 11:03:54 437.485
M-CUBED/EXP-1 PRIME 28 Jul 11:04:45 11:08:06 31° 259° (W) 11:11:42 437.505
DELFI C3 28 Jul 11:05:02 11:08:48 39° 288° (WNW) 11:12:33 145.870
DUCHIFAT 1 28 Jul 11:11:48 11:15:12 24° 68° (ENE) 11:18:35 145.980
POLYITAN 1 28 Jul 11:19:22 11:23:15 36° 71° (ENE) 11:27:09 437.675
BUGSAT 1 28 Jul 11:28:23 11:29:24 11° 62° (ENE) 11:30:25 437.445
QB50P2 28 Jul 11:32:20 11:36:30 55° 73° (ENE) 11:40:40 145.880/145.840
ESTCUBE 1 28 Jul 11:34:16 11:37:54 23° 95° (E) 11:41:31 437.505/2401.250
AIST 2D 28 Jul 11:36:03 11:39:28 56° 260° (W) 11:42:55 435.315
NANOSAT C BR1 28 Jul 11:40:35 11:44:44 55° 74° (ENE) 11:48:54 145.865
EO-79 28 Jul 11:42:57 11:47:10 66° 75° (ENE) 11:51:25 145.935-145.965
BEESAT 2 28 Jul 11:47:06 11:49:44 17° 111° (ESE) 11:52:26 435.950
Oscar 19 28 Jul 11:51:03 11:51:59 10° 57° (ENE) 11:52:55 437.125/150
NO-84 28 Jul 11:52:49 11:54:52 16° 338° (NNW) 11:57:02 435.350 FM
LO-87 28 Jul 12:03:31 12:07:07 88° 101° (E) 12:10:40 145.935 - 145.965
VELOX 1 28 Jul 12:06:27 12:06:51 10° 89° (E) 12:07:16 145.980
AO-85 28 Jul 12:23:52 12:27:49 64° 305° (NW) 12:31:43 145.980
SPROUT 28 Jul 12:26:21 12:29:35 21° 94° (E) 12:32:47 437.525
PCSat 28 Jul 12:31:37 12:36:05 25° 47° (NE) 12:40:32 145.827
BEESAT 3 28 Jul 12:34:46 12:38:38 46° 307° (NW) 12:42:33 437.485
Gurwin Techsat 1B 28 Jul 12:43:26 12:47:27 22° 63° (ENE) 12:51:27 435.225
DUCHIFAT 1 28 Jul 12:47:01 12:50:43 29° 264° (W) 12:54:26 145.980
